Regional Weather Roundup
Issued by NWS

Home | Current Version | Previous Version | Text Only | Print | Product List | Glossary Off
Versions: 1 2 3 4 5 6 7 8 9 10 11 12 13 14 15 16 17 18 19 20 21 22 23 24 25 26 27 28 29 30 31 32 33 34 35 36 37 38 39 40 41 42 43 44 45 46 47 48 49 50

000
ASUS43 KMKX 200511
RWRWI

WISCONSIN REGIONAL WEATHER ROUNDUP
NATIONAL WEATHER SERVICE MILWAUKEE/SULLIVAN WI
1200 AM CDT SUN APR 20 2014

NOTE: "FAIR" INDICATES FEW OR NO CLOUDS BELOW 12,000 FEET WITH NO
SIGNIFICANT WEATHER AND/OR OBSTRUCTIONS TO VISIBILITY.

WIZ001-002-006>008-014>016-023>028-200600-
NORTHWEST WISCONSIN

CITY           SKY/WX    TMP DP  RH WIND       PRES   REMARKS
SUPERIOR ARPT  CLEAR     31  30  97 CALM      30.03F
ASHLAND        CLOUDY    40  40 100 W6        30.02F
HAYWARD        CLOUDY    43  39  86 CALM      30.02F
SIREN          PTCLDY    40  37  89 CALM      30.01S
RICE LAKE      LGT RAIN  49  46  90 CALM      30.05R
LADYSMITH      CLOUDY    53  45  75 SE7       30.05F
EAU CLAIRE     CLOUDY    59  41  51 SE3       30.02S
MENOMONIE      CLOUDY    55  44  68 SE6       30.01F
NEW RICHMOND   RAIN      51  51 100 CALM      30.02S
OSCEOLA        CLOUDY    51  51  99 CALM      30.03F
$$

WIZ003>005-009-010-017-018-200600-
NORTH CENTRAL WISCONSIN

CITY           SKY/WX    TMP DP  RH WIND       PRES   REMARKS
WOODRUFF       CLOUDY    46  40  80 S8        30.06F
RHINELANDER    LGT RAIN  46  36  68 S7        30.09F
EAGLE RIVER    MOCLDY    44  35  69 S5        30.07F
LAND O LAKES   CLOUDY    47  36  66 S8        30.07F
PHILLIPS       CLOUDY    51  40  67 S8        30.03F
TOMAHAWK       CLOUDY    46  38  73 CALM      30.07F
MEDFORD        CLOUDY    53  40  62 SE9       30.06F
MERRILL        CLOUDY    50  39  64 CALM      30.09F
$$

WIZ029-030-035-036-043>047-200600-
CENTRAL WISCONSIN

CITY           SKY/WX    TMP DP  RH WIND       PRES   REMARKS
WAUSAU         LGT RAIN  53  38  56 SE10      30.08F
MOSINEE        CLOUDY    54  36  50 SE12      30.11F
MARSHFIELD     CLOUDY    57  38  48 S9        30.07F
STEVENS POINT  CLOUDY    53  36  52 S7        30.12S
WAUPACA        CLOUDY    54  37  54 S8        30.14F
WAUTOMA        CLOUDY    54  40  59 S8        30.15F
WISC RAPIDS    CLOUDY    60  35  39 S9G17     30.11F
CAMP DOUGLAS   CLOUDY    61  34  36 S12       30.09F
$$

WIZ011>013-019>022-031-037>040-048>050-200600-
NORTHEAST WISCONSIN

CITY           SKY/WX    TMP DP  RH WIND       PRES   REMARKS
ANTIGO         LGT RAIN  45  37  75 SE8       30.12F
STURGEON BAY   CLOUDY    45  30  57 S17G24    30.18F
GREEN BAY      CLOUDY    50  38  63 S14       30.16F
MANITOWOC      MOCLDY    43  34  70 S8        30.21F
APPLETON       CLOUDY    50  34  53 S14       30.16F
CLINTONVILLE   CLOUDY    50  37  62 S8        30.14F
OSHKOSH        CLOUDY    51  37  58 S13       30.16F
$$

WIZ032>034-041-042-053>061-200600-
SOUTHWEST WISCONSIN

CITY           SKY/WX    TMP DP  RH WIND       PRES   REMARKS
LA CROSSE      MOCLDY    62  39  42 S13       30.06S
SPARTA         CLOUDY    64  32  30 S15G21    30.08F
VIROQUA        CLOUDY    60  36  40 S14G20    30.11S
BOSCOBEL       CLOUDY    64  33  31 S10       30.12F
PRAIRIE DU CHI CLOUDY    62  34  35 E6        30.11S
PLATTEVILLE    MOCLDY    57  37  46 SE12      30.16S
$$

WIZ056-057-062-063-064-067-068-200600-
SOUTH CENTRAL WISCONSIN

CITY           SKY/WX    TMP DP  RH WIND       PRES   REMARKS
BARABOO/DELLS  CLOUDY    57  34  42 S7        30.14S
LONE ROCK      CLOUDY    62  35  36 S9        30.14S
WATERTOWN      CLOUDY    50  36  59 SE9       30.19F
MADISON        MOCLDY    54  39  57 S13       30.17F
MIDDLETON      FAIR      55  35  47 S7        30.17F
MONROE         MOCLDY    53  36  52 SE13      30.18S
JANESVILLE     PTCLDY    46  37  71 SE7       30.19F
$$

WIZ051-052-058>065-066-070>072-200600-
SOUTHEAST WISCONSIN

CITY           SKY/WX    TMP DP  RH WIND       PRES   REMARKS
MILWAUKEE      PTCLDY    49  35  58 S12       30.24F
WAUKESHA       PTCLDY    45  34  65 S9        30.23F
MILWAUKEE/TIMM PTCLDY    46  34  61 S7        30.23F
RACINE         PTCLDY    46  35  65 S10       30.25S
BURLINGTON     PTCLDY    39  35  85 CALM      30.22F
KENOSHA        PTCLDY    49  36  61 S12       30.23S
FOND DU LAC    CLOUDY    52  36  54 S18       30.17F
SHEBOYGAN      PTCLDY    41  33  73 S9        30.21F
WEST BEND      CLOUDY    45  32  61 S5        30.22S
JUNEAU         CLOUDY    49  33  52 SE10      30.20S
$$

LSZ147-162-200600-
LAKE SUPERIOR

STATION/POSITION TIME  TEMP    WIND        PRES    WAVE
                       AIR SEA DIR/SP/G            HT/PER
                 (UTC) (F)     (DEG/KT/KT) (MB)    (FT/S)
DEVILS ISLAND    0400   35      CALM  / 39 1017.5F
PORT WING        0400   32      CALM  /  2 1016.9S
SAXON HARBOR     0400             CALM     1016.6S
$$

LMZ867-665-643>646-200600-
LAKE MICHIGAN

STATION/POSITION TIME  TEMP    WIND        PRES    WAVE
                       AIR SEA DIR/SP/G            HT/PER
                 (UTC) (F)     (DEG/KT/KT) (MB)    (FT/S)
NORTHPORT PIER   0400   37     150/  7/ 11 1023.0S
SISTER BAY       0409   40     150/ 13/ 17   N/A
KEWAUNEE LAKESHO 0400   39     180/ 12/ 14 1023.4F
SHEBOYGAN LAKESH 0500   43     180/ 10/ 10 1024.1S
PORT WASHINGTON  0400   41     200/  2/  3 1024.4S
MILWAUKEE LAKESH 0400   42     100/  5/  6   N/A
KENOSHA   LAKESH 0500   46     180/ 15/ 18   N/A
$$

TC  - TEMPERATURE IN CELSIUS
VSB - VISIBILITY IN STATUTE MILES
WCI - WIND CHILL INDEX
HX  - HEAT INDEX




USA.gov is the U.S. government's official web portal to all federal, state and local government web resources and services.